Location: Holyhead Bay
(53.3667°N, 4.6667°W)
Time: 06:15:18
(UTC+00:00)

Cosmos 2292 - Pass Details

Date: 24 November 2020
Orbit: 396 x 1697 km, 83.0° (Epoch: 23 January)

Event Time Altitude Azimuth Distance (km) Brightness Sun altitude
Rises 17:38:28 0° 180° (S) 2,315 8.3 -12.6°
Reaches altitude 10° 17:40:20 10° 176° (S) 1,503 7.2 -12.9°
Maximum altitude 17:43:27 61° 95° (E) 537 4.5 -13.3°
Drops below altitude 10° 17:47:18 10° 15° (NNE) 1,854 7.2 -13.9°
Enters shadow 17:49:20 - 13° (NNE) 2,735 8.1 -14.2°
